Stations météo

réclame
Mon MeteoGroup
F16-A, Pays-Bas (6206): Température de l'air & dewpoint: 15.01.2019 17:00:00 - 21.01.2019 17:00:00 (CET)F16-A, Pays-Bas (6206): Vitesse du vent & gusts: 15.01.2019 17:00:00 - 21.01.2019 17:00:00 (CET)F16-A, Pays-Bas (6206): Direction du vent: 15.01.2019 17:00:00 - 21.01.2019 17:00:00 (CET)F16-A, Pays-Bas (6206): reduced air pressure: 15.01.2019 17:00:00 - 21.01.2019 17:00:00 (CET)F16-A, Pays-Bas (6206): visibility: 15.01.2019 17:00:00 - 21.01.2019 17:00:00 (CET)
Date & Time tt [°C] td [°C] ff [km/h] ff [knt] fx [km/h] fx [knt] dd ppp [hPa] vv [km]
21.01.2019 17:00:00 6,0 1,0 13 7 - - WSW 1017,6 10
21.01.2019 16:00:00 6,4 0,9 9 5 11 6 W 1018,3 10
21.01.2019 15:00:00 7,0 0,9 11 6 11 6 W 1018,9 10
21.01.2019 14:00:00 7,6 1,6 11 6 14 8 W 1019,8 10
21.01.2019 13:00:00 7,2 1,2 16 9 18 10 WNW 1020,4 10
21.01.2019 12:00:00 7,6 1,3 15 8 18 10 WNW 1021,1 10
21.01.2019 11:00:00 6,8 1,3 11 6 14 8 NW 1021,5 10
21.01.2019 10:00:00 6,6 1,6 15 8 18 10 NW 1021,6 10
21.01.2019 09:00:00 6,6 1,8 15 8 22 12 NW 1021,6 10
21.01.2019 08:00:00 6,5 2,1 18 10 25 14 NNW 1021,5 10
21.01.2019 07:00:00 6,2 2,6 16 9 29 16 NW 1021,3 10
21.01.2019 06:00:00 5,8 3,3 21 11 36 19 NNW 1021,5 10
21.01.2019 05:00:00 6,1 3,7 28 15 29 16 NW 1021,4 10
21.01.2019 04:00:00 6,4 3,5 21 11 18 10 W 1021,5 10
21.01.2019 03:00:00 6,2 2,6 18 10 18 10 W 1021,9 10
21.01.2019 02:00:00 5,7 1,5 16 9 18 10 W 1022,0 10
21.01.2019 01:00:00 5,4 0,8 16 9 18 10 W 1022,2 10
21.01.2019 00:00:00 5,2 -0,3 16 9 18 10 WSW 1022,3 10
20.01.2019 23:00:00 5,2 0,1 15 8 18 10 WSW 1022,2 10
20.01.2019 22:00:00 5,1 -0,6 16 9 18 10 WSW 1021,9 10
20.01.2019 21:00:00 5,0 -1,4 15 8 14 8 WSW 1021,5 10
20.01.2019 20:00:00 4,9 -2,5 13 7 14 8 SW 1021,3 10
20.01.2019 19:00:00 4,9 -2,7 13 7 14 8 SW 1020,9 10
20.01.2019 18:00:00 4,9 -3,2 11 6 14 8 SW 1020,8 10
20.01.2019 17:00:00 4,8 -3,5 13 7 14 8 SSW 1020,2 10
20.01.2019 16:00:00 5,0 -3,3 9 5 14 8 - 1019,8 10
20.01.2019 15:00:00 5,0 -3,6 11 6 14 8 SSW 1019,6 10
20.01.2019 14:00:00 5,0 -3,8 15 8 18 10 S 1019,6 10
20.01.2019 13:00:00 5,0 -3,8 15 8 18 10 SSE 1019,4 10
20.01.2019 12:00:00 5,0 -4,7 13 7 14 8 S 1019,2 10
20.01.2019 11:00:00 5,1 -4,4 15 8 18 10 SSE 1018,8 10
20.01.2019 10:00:00 4,8 -4,3 15 8 14 8 SSE 1018,2 10
20.01.2019 09:00:00 4,5 -4,6 15 8 18 10 SSE 1017,4 10
20.01.2019 08:00:00 4,3 -3,5 15 8 18 10 SSE 1016,8 10
20.01.2019 07:00:00 4,1 -3,4 18 10 22 12 SSE 1016,3 10
20.01.2019 06:00:00 4,0 -3,1 18 10 22 12 SSE 1016,1 10
20.01.2019 05:00:00 3,8 -2,6 18 10 25 14 SSE 1015,9 10
20.01.2019 04:00:00 3,7 -2,9 22 12 25 14 SSE 1015,8 10
20.01.2019 03:00:00 3,7 -2,9 24 13 29 16 SSE 1015,7 10
20.01.2019 02:00:00 3,5 -2,9 26 14 32 18 SSE 1015,5 10
20.01.2019 01:00:00 3,5 -2,1 28 15 32 18 SSE 1015,4 10
20.01.2019 00:00:00 3,4 -2,2 34 18 36 19 SSE 1015,2 10
19.01.2019 23:00:00 3,7 -1,2 37 20 36 19 SSE 1015,0 10
19.01.2019 22:00:00 3,8 -1,8 37 20 40 21 SSE 1014,7 10
19.01.2019 21:00:00 3,9 -1,9 39 21 43 23 SSE 1014,2 10
19.01.2019 20:00:00 4,0 -1,8 31 17 36 19 SSE 1014,4 10
19.01.2019 19:00:00 3,8 -0,9 31 17 36 19 SSE 1014,3 10
19.01.2019 18:00:00 4,0 -2,8 31 17 36 19 SSE 1014,3 10
19.01.2019 17:00:00 4,0 -3,0 31 17 40 21 SSE 1014,2 10
19.01.2019 16:00:00 4,3 -2,0 39 21 43 23 SSE 1014,0 10
19.01.2019 15:00:00 4,0 -2,0 39 21 43 23 S 1014,3 10
19.01.2019 14:00:00 3,9 -1,3 39 21 43 23 S 1014,7 10
19.01.2019 13:00:00 3,8 -1,5 41 22 43 23 S 1015,2 10
19.01.2019 12:00:00 3,4 -0,7 42 23 47 25 S 1015,5 10
19.01.2019 11:00:00 3,9 -0,2 44 24 47 25 S 1015,4 10
19.01.2019 10:00:00 3,6 -0,5 42 23 43 23 S 1015,3 10
19.01.2019 09:00:00 3,9 -0,4 42 23 43 23 S 1015,1 10
19.01.2019 08:00:00 3,8 -0,9 42 23 43 23 S 1015,0 10
19.01.2019 07:00:00 4,2 -0,5 41 22 43 23 S 1014,9 10
19.01.2019 06:00:00 4,3 -0,9 41 22 43 23 S 1014,9 10
19.01.2019 05:00:00 4,6 -0,8 39 21 40 21 S 1015,4 10
19.01.2019 04:00:00 5,1 -0,6 37 20 40 21 S 1015,7 10
19.01.2019 03:00:00 5,5 0,2 35 19 40 21 S 1015,9 10
19.01.2019 02:00:00 5,4 0,1 39 21 40 21 S 1016,2 10
19.01.2019 01:00:00 5,6 0,1 39 21 40 21 S 1016,6 10
19.01.2019 00:00:00 5,8 -0,5 41 22 43 23 S 1016,6 10
18.01.2019 23:00:00 6,2 0,9 42 23 43 23 S 1016,9 10
18.01.2019 22:00:00 6,3 1,1 42 23 43 23 S 1017,0 10
18.01.2019 21:00:00 6,1 1,7 31 17 32 18 S 1016,9 10
18.01.2019 20:00:00 6,4 -0,9 24 13 29 16 S 1017,0 10
18.01.2019 19:00:00 6,3 -1,6 21 11 22 12 SSW 1017,1 10
18.01.2019 18:00:00 5,7 1,6 16 9 18 10 S 1017,3 10
18.01.2019 17:00:00 5,5 0,1 13 7 18 10 SSW 1017,4 10
18.01.2019 16:00:00 5,4 -0,1 16 9 25 14 SW 1017,7 10
18.01.2019 15:00:00 5,1 0,7 28 15 29 16 SW 1017,7 10
18.01.2019 14:00:00 6,5 -0,9 8 4 11 6 WSW 1017,9 10
18.01.2019 13:00:00 6,2 -0,5 9 5 11 6 WSW 1018,1 10
18.01.2019 12:00:00 6,9 -0,8 8 4 - - WNW 1018,1 10
18.01.2019 11:00:00 6,5 -1,7 13 7 14 8 WNW 1017,8 10
18.01.2019 10:00:00 6,2 -1,1 15 8 18 10 WNW 1017,6 10
18.01.2019 09:00:00 5,8 -0,4 21 11 25 14 W 1017,1 10
18.01.2019 08:00:00 6,2 -0,1 24 13 29 16 WNW 1016,4 10
18.01.2019 07:00:00 6,1 -0,7 28 15 29 16 WNW 1016,3 10
18.01.2019 06:00:00 5,8 0,3 24 13 32 18 NW 1015,9 10
18.01.2019 05:00:00 6,1 -1,1 26 14 36 19 WNW 1015,6 10
18.01.2019 04:00:00 6,2 0,1 24 13 36 19 WNW 1015,3 10
18.01.2019 03:00:00 6,2 -2,2 22 12 29 16 NW 1015,1 10
18.01.2019 02:00:00 6,3 -2,2 28 15 29 16 NW 1014,7 10
18.01.2019 01:00:00 6,5 -1,4 28 15 36 19 NNW 1014,3 10
18.01.2019 00:00:00 6,2 -2,9 35 19 40 21 N 1013,7 10
17.01.2019 23:00:00 6,1 -3,4 44 24 50 27 NNE 1012,7 10
17.01.2019 22:00:00 6,0 -3,1 50 27 61 33 N 1011,5 10
17.01.2019 21:00:00 6,4 -3,2 52 28 65 35 NNW 1010,0 10
17.01.2019 20:00:00 4,5 -0,3 39 21 83 45 NNW 1008,9 10
17.01.2019 19:00:00 5,7 -0,7 44 24 58 31 NW 1007,4 10
17.01.2019 18:00:00 4,4 -0,1 35 19 72 39 NW 1006,5 10
17.01.2019 17:00:00 5,4 -0,8 57 31 65 35 NW 1005,0 10
17.01.2019 16:00:00 5,9 -1,0 59 32 61 33 NNW 1003,6 10
17.01.2019 15:00:00 5,0 -2,2 63 34 61 33 NNW 1002,4 10
17.01.2019 14:00:00 4,5 -0,9 52 28 76 41 NNW 1001,8 10
17.01.2019 13:00:00 5,0 -0,6 39 21 50 27 NW 1000,4 10
17.01.2019 12:00:00 5,2 -0,3 46 25 50 27 NW 999,8 10
17.01.2019 11:00:00 4,8 -0,8 46 25 58 31 NW 998,9 10
17.01.2019 10:00:00 4,0 0,9 63 34 65 35 WNW 998,9 10
17.01.2019 09:00:00 4,6 -0,5 46 25 54 29 NW 997,9 10
17.01.2019 08:00:00 4,4 1,4 48 26 58 31 NNW 996,7 10
17.01.2019 07:00:00 4,5 1,9 48 26 61 33 NNW 996,0 10
17.01.2019 06:00:00 5,6 2,5 54 29 61 33 WNW 994,8 10
17.01.2019 05:00:00 6,6 3,0 48 26 47 25 W 994,7 10
17.01.2019 04:00:00 6,6 2,7 46 25 50 27 W 994,8 10
17.01.2019 03:00:00 6,9 2,1 46 25 47 25 W 995,3 10
17.01.2019 02:00:00 7,1 1,3 42 23 43 23 W 995,4 10
17.01.2019 01:00:00 7,3 2,4 42 23 43 23 W 995,7 10
17.01.2019 00:00:00 7,3 2,2 39 21 43 23 W 995,7 10
16.01.2019 23:00:00 7,5 2,0 39 21 40 21 W 995,6 10
16.01.2019 22:00:00 7,6 2,9 37 20 40 21 W 995,6 10
16.01.2019 21:00:00 7,6 2,9 31 17 40 21 WSW 995,6 10
16.01.2019 20:00:00 6,9 0,8 41 22 43 23 W 995,9 10
16.01.2019 19:00:00 7,0 3,6 25 14 32 18 W 996,2 18
16.01.2019 18:00:00 7,0 4,2 46 25 54 29 WNW 996,1 10
16.01.2019 17:00:00 8,3 7,1 57 31 58 31 SW 995,8 12
16.01.2019 16:00:00 8,2 7,0 55 30 58 31 SW 996,5 -
16.01.2019 15:00:00 8,3 7,0 55 30 61 33 SW 997,4 -
16.01.2019 14:00:00 8,3 6,9 63 34 65 35 SW 998,2 -
16.01.2019 13:00:00 8,4 6,9 61 33 65 35 SW 998,7 -
16.01.2019 12:00:00 8,4 6,8 59 32 61 33 SW 999,9 -
16.01.2019 11:00:00 8,4 6,7 54 29 58 31 SW 1000,8 -
16.01.2019 10:00:00 8,2 6,6 55 30 58 31 SW 1001,5 -
16.01.2019 09:00:00 8,2 6,4 52 28 54 29 SW 1001,9 -
16.01.2019 08:00:00 8,1 6,4 54 29 54 29 SW 1002,6 -
16.01.2019 07:00:00 8,1 6,3 50 27 50 27 SW 1002,9 -
16.01.2019 06:00:00 8,1 6,5 46 25 50 27 SW 1003,8 -
16.01.2019 05:00:00 8,2 6,6 46 25 47 25 SW 1004,6 -
16.01.2019 04:00:00 8,4 6,3 46 25 47 25 SW 1005,6 -
16.01.2019 03:00:00 8,4 6,3 46 25 47 25 SW 1006,1 -
16.01.2019 02:00:00 8,3 6,5 44 24 47 25 SW 1006,4 -
16.01.2019 01:00:00 8,2 6,4 42 23 47 25 SW 1007,0 -
16.01.2019 00:00:00 8,3 6,3 46 25 47 25 WSW 1007,7 -
15.01.2019 23:00:00 8,3 6,2 46 25 47 25 WSW 1008,2 -
15.01.2019 22:00:00 8,7 5,3 46 25 47 25 WSW 1008,6 10
15.01.2019 21:00:00 8,8 5,5 44 24 47 25 WSW 1009,2 -
15.01.2019 20:00:00 8,7 5,7 42 23 43 23 WSW 1009,5 -
15.01.2019 19:00:00 8,7 6,0 46 25 47 25 WSW 1009,6 -
15.01.2019 18:00:00 8,8 6,5 42 23 43 23 W 1009,8 -
15.01.2019 17:00:00 8,7 6,7 42 23 43 23 W 1009,9 -

tt = Température de l'air
td = dewpoint
ff = Vitesse du vent
fx = gusts
dd = Direction du vent
ppp = reduced air pressure
vv = visibility

stations d'obs. à proximité